User: anonymous
Location: Campbell River
(50.0170°N, 125.2500°W)
Time: 07:04:17
(UTC-07:00)
Language:

SL-8 R/B - Orbit

View from above orbital plane
View from above orbital plane
View from above satellite
View from above satellite

Ground track
Ground track

The orbit data is extracted from the following two-line orbital elements,

1 31798U 07030B   14245.13548428  .00304347  40256-4  67066-3 0  2240
2 31798 098.1758 305.9817 0002886 311.3234 109.8868 15.98061414401657
Epoch (UTC): 02 September 2014 03:15:05
Eccentricity: 0.0002886
inclination: 98.1758°
perigee height: 278 km
apogee height: 282 km
right ascension of ascending node: 305.9817°
argument of perigee: 311.3234°
revolutions per day: 15.98061414
mean anomaly at epoch: 109.8868°
orbit number at epoch: 40165

The dashed part of the orbit path shows where the satellite is in the earth's shadow,  

DLR